Flag for Greece Weather past 2 weeks in Santorini, Greece

Now
72 °F

Mild.


Feels Like: 76 °F
Forecast: 74 / 78 °F
Wind: 21 mph from North

Location: Santorini Island

Current Time: Sep 20, 2014 at 1:28:52 AM

Latest Report: Sep 20, 2014 at 12:50 AM


Visibility: N/A

Pressure: 30.09 "Hg

Humidity: 61%

Dew point: 57 °F

Location of SantoriniLocation

Historic Weather in Santorini — Graph

°F

Santorini temperature yesterday

Maximum temperature yesterday: 79 °F (at 11:50 AM)
Minimum temperature yesterday: 72 °F (at 6:20 AM)
Average temperature yesterday: 75 °F

Past Weeks' High & Low Weather Summary

 TemperatureHumidityPressure
High86 °F (Sep 13, 1:20 PM)100% (Sep 17, 8:20 PM)30.12 "Hg (Sep 17, 8:20 PM)
Low70 °F (Sep 11, 5:50 AM)32% (Sep 11, 5:50 PM)29.71 "Hg (Sep 5, 5:20 PM)
Average78 °F64%29.88 "Hg
* Reported Sep 4 11:50 PM — Sep 19 11:50 PM, Santorini, Weather by CustomWeather, © 2014

Note: Actual official high and low records may vary slightly from our data, if they occured in-between our weather recording intervals... More about our weather records

Advertising

Santorini weather history for previous 24 hours

 ConditionsComfort  
Time TempWeatherWind HumidityBarometerVisibility
11:50 PM
Sep 19
72 °FClear.20 mph61%30.12 "Hg10 mi
10:50 PM72 °FClear.20 mph57%30.12 "Hg10 mi
10:20 PM73 °FClear.23 mph53%30.12 "Hg10 mi
9:50 PM73 °FClear.21 mph53%30.12 "Hg10 mi
9:20 PM73 °FClear.23 mph53%30.12 "Hg10 mi
8:50 PM73 °FClear.23 mph53%30.09 "Hg10 mi
7:50 PM73 °FSunny.21 mph53%30.09 "Hg10 mi
7:20 PM73 °FSunny.24 mph50%30.09 "Hg10 mi
6:50 PM75 °FSunny.24 mph50%30.09 "Hg10 mi
6:20 PM77 °FPassing clouds.23 mph51%30.09 "HgN/A
5:50 PM77 °FPassing clouds.23 mph51%30.09 "HgN/A
5:20 PM77 °FPassing clouds.24 mph51%30.07 "HgN/A
4:50 PM79 °FPassing clouds.24 mph45%30.09 "HgN/A
4:20 PM79 °FPassing clouds.23 mph48%30.09 "HgN/A
3:50 PM79 °FPassing clouds.21 mph48%30.09 "HgN/A
2:50 PM79 °FPassing clouds.20 mph45%30.09 "HgN/A
2:20 PM79 °FPassing clouds.20 mph51%30.09 "HgN/A
1:50 PM79 °FPassing clouds.20 mph51%30.09 "HgN/A
1:20 PM79 °FPassing clouds.18 mph51%30.09 "HgN/A
12:50 PM79 °FPassing clouds.17 mph54%30.09 "HgN/A
12:20 PM79 °FPassing clouds.17 mph51%30.09 "HgN/A
11:50 AM79 °FPassing clouds.18 mph51%30.09 "HgN/A
11:20 AM77 °FPassing clouds.20 mph54%30.09 "HgN/A
10:50 AM77 °FPassing clouds.17 mph51%30.09 "HgN/A
10:20 AM77 °FPassing clouds.20 mph54%30.09 "HgN/A
9:20 AM75 °FPassing clouds.21 mph61%30.09 "HgN/A
8:50 AM75 °FPassing clouds.18 mph57%30.07 "HgN/A
8:20 AM73 °FPassing clouds.16 mph61%30.07 "HgN/A
7:50 AM73 °FPassing clouds.22 mph65%30.07 "HgN/A
7:20 AM72 °FPassing clouds.20 mph69%30.07 "HgN/A
6:50 AM72 °FPassing clouds.18 mph65%30.04 "HgN/A
6:20 AM72 °FPassing clouds.21 mph69%30.04 "HgN/A
5:50 AM73 °FPassing clouds.18 mph65%30.04 "HgN/A
5:20 AM73 °FPassing clouds.18 mph65%30.04 "HgN/A
4:50 AM73 °FPassing clouds.21 mph65%30.04 "HgN/A
4:20 AM73 °FPassing clouds.20 mph65%30.04 "HgN/A
3:20 AM73 °FPassing clouds.21 mph65%30.04 "HgN/A
2:50 AM73 °FPassing clouds.18 mph69%30.04 "HgN/A
2:20 AM73 °FPassing clouds.20 mph69%30.04 "HgN/A
1:50 AM73 °FPassing clouds.18 mph69%30.04 "HgN/A
1:20 AM73 °FMild.15 mph65%30.04 "HgN/A
Weather by CustomWeather, © 2014

See weather overviewHow to use our weather pages